Regional Weather Roundup
Issued by NWS Northern Indiana

Home | Current Version | Previous Version | Graphics & Text | Print | Product List | Glossary On
Versions: 1 2 3 4 5 6 7 8 9 10 11 12 13 14 15 16 17 18 19 20 21 22 23 24 25 26 27 28 29 30 31 32 33 34 35 36 37 38 39 40 41 42 43 44 45 46 47 48 49 50
666
ASUS43 KIWX 301000
RWRIWX

KIWX WEATHER ROUNDUP
NATIONAL WEATHER SERVICE NORTHERN INDIANA
600 AM EDT SAT JUL 30 2016

NOTE: "FAIR" INDICATES FEW OR NO CLOUDS BELOW 12,000 FEET WITH NO
SIGNIFICANT WEATHER AND/OR OBSTRUCTIONS TO VISIBILITY.

* THESE STATIONS ARE NOT UNDER NWS QUALITY CONTROL. THEY ALSO MAY NOT
  REPORT WEATHER SUCH AS PRECIPITATION OR FOG.

INZ001>027-301100-
NORTHERN INDIANA

CITY           SKY/WX    TMP DP  RH WIND       PRES   REMARKS
GARY*          PTCLDY    66  66 100 CALM      29.92S
KNOX*          CLOUDY    66  64  94 CALM      29.92S
SOUTH BEND     CLOUDY    68  66  93 NE3       29.94R
GOSHEN         CLOUDY    69  65  86 E5        29.94R FOG
MONTICELLO*    CLOUDY    68  64  87 CALM      29.91S FOG
WARSAW*        CLOUDY    68  68 100 E6        29.93S FOG
ANGOLA*        CLOUDY    64  55  72 NE3       29.94S
FORT WAYNE     CLOUDY    70  68  93 E6        29.93R FOG
PERU/GRISSOM   CLOUDY    69  69 100 E2        29.91S FOG

$$
INZ028>050-301100-
CENTRAL INDIANA

CITY           SKY/WX    TMP DP  RH WIND       PRES   REMARKS
LAFAYETTE      FOG       67  67 100 E3        29.91R VSB 1/4
KOKOMO*        CLOUDY    66  63  88 E3        29.92S VSB 1/2
MUNCIE*        FOG       68  66  93 CALM      29.93S VSB 1/4
INDIANAPOLIS   FOG       69  68  96 CALM      29.93R VSB 1/2

$$
MIZ043>046-050>051-056>058-064>065-071>073-077>080-301100-
SOUTHWEST LOWER MICHIGAN

CITY           SKY/WX    TMP DP  RH WIND       PRES   REMARKS
BATTLE CREEK   CLOUDY    62  61  96 NE8       29.97S
BENTON HARBOR  CLOUDY    67  59  75 NE7       29.94R
COLDWATER*     CLOUDY    64  62  94 NE6       29.96R
HILLSDALE*     CLOUDY    64  61  90 N3        29.96R
HOLLAND        LGT RAIN  62  60  93 NE5       29.99S
GRAND RAPIDS   LGT RAIN  62  60  93 NE8       29.99S
KALAMAZOO      CLOUDY    64  59  83 NE6       29.97S
STURGIS*       CLOUDY    63  60  90 NE7       29.94S
THREE RIVERS*  CLOUDY    66  59  79 NE3       29.95S

$$
OHZ001>008-015>018-024>025-301100-
NORTHWEST OHIO

CITY           SKY/WX    TMP DP  RH WIND       PRES   REMARKS
DEFIANCE       CLEAR     66  61  84 NE3       29.94R
FINDLAY        CLOUDY    72  68  87 NE5       29.91S FOG
TOLEDO EXPRESS CLOUDY    65  63  93 N5        29.92S
TOLEDO METCALF CLOUDY    74  72  93 N5        29.92S
LIMA           PTCLDY    68  68 100 CALM      29.93R FOG

$$
AND FOR LAKE MICHIGAN COASTAL AND OPEN LAKE BUOY OBSERVATIONS

STATION/POSITION TEMP    WIND        PRES    VSBY  WAVE
                 AIR SEA DIR/SP/G                  HT/PER
                 (F)     (DEG/KT/KT) (MB)    (MI)  (FT/S)
CALUMET HARBOR    71      20/  2/  3 1012.6F
MICHIGAN CITY     68     110/  9/ 10   N/A
BURNS HARBOR      70     120/  4/ 11 1013.5F
SOUTH LAKE BUOY   68 73   60/ 17/ 21 1014.0          4/ 5
4 MI NW BRIDGMAN  69 71   50/  8/ 10 1013.1F         2
MICHIGAN CITY     70 76  130/ 12/ 14   N/A           2/ 5

$$
&&




USA.gov is the U.S. government's official web portal to all federal, state and local government web resources and services.